Location: Stanford
(52.2833°N, 2.4333°W)
Time: 00:43:09
(UTC+00:00)

Cosmos 1937 Rocket - Pass Details

Date: 22 January 2021
Orbit: 746 x 780 km, 74.0° (Epoch: 28 February)

Event Time Altitude Azimuth Distance (km) Brightness Sun altitude
Rises 19:17:37 0° 190° (S) 3,245 6.9 -23.8°
Reaches altitude 10° 19:20:01 10° 187° (S) 2,325 6.1 -24.2°
Enters shadow 19:24:01 47° 156° (SSE) 1,029 3.9 -24.8°
